Zurück zum Katalog

STARLINK-5360

AktivKommunikationVLEO
NORAD 54846·PAYLOAD·🇺🇸 United States

Gestartet Dec 28, 2022 von Cape Canaveral Space Force Station

Loading…

Nächste Überflüge (nächste 24 Stunden)

TLE

AktuellSource: CelesTrak SupGP

Epoche: Sep 14, 2026, 21:50 UTC

1 54846C 22177AC  26257.91020833 -.00018130  00000+0 -65688-3 0  2571
2 54846  43.0000 144.0190 0000933 252.0962  60.1795 15.27578024    16

Verfolge STARLINK-5360 in Echtzeit mit AllMySat

Download on the App Store